QPF
0.00 0.00 0.00 0.00 0.00 0.00 0.00 0.00 0.00 0.00 0.00 0.00 0.00 0.00 0.00 0.00 0.00 0.00 0.00 0.00 0.00 0.00 0.00 0.01 0.02 0.03 0.03 0.04 0.04 0.04 0.03 0.01 0.01 0.01 0.00 0.00 0.00 0.00 0.00 0.00 0.00 0.00 0.00
0.00 0.00 0.00 0.00 0.00 0.00 0.00 0.00 0.00 0.00 0.00 0.00 0.00 0.00 0.00 0.00 0.00 0.00 0.00 0.00 0.00 0.00 0.00 0.00 0.01 0.03 0.04 0.04 0.05 0.06 0.06 0.04 0.02 0.01 0.01 0.01 0.00 0.00 0.00 0.00 0.00 0.00 0.00
0.00 0.00 0.00 0.00 0.00 0.00 0.00 0.00 0.00 0.00 0.00 0.00 0.00 0.00 0.00 0.00 0.00 0.00 0.00 0.00 0.00 0.00 0.00 0.00 0.01 0.02 0.03 0.04 0.05 0.06 0.07 0.07 0.05 0.03 0.02 0.02 0.01 0.01 0.00 0.00 0.00 0.00 0.00
0.00 0.00 0.00 0.00 0.00 0.00 0.00 0.00 0.00 0.00 0.00 0.00 0.00 0.00 0.00 0.00 0.00 0.00 0.00 0.00 0.00 0.00 0.00 0.00 0.01 0.01 0.02 0.02 0.03 0.04 0.06 0.06 0.05 0.05 0.05 0.04 0.03 0.02 0.01 0.00 0.00 0.00 0.00
0.01 0.00 0.00 0.00 0.00 0.00 0.00 0.00 0.00 0.00 0.00 0.00 0.00 0.00 0.00 0.00 0.00 0.00 0.00 0.00 0.00 0.00 0.00 0.00 0.00 0.00 0.01 0.01 0.01 0.02 0.03 0.04 0.04 0.04 0.05 0.06 0.05 0.05 0.04 0.03 0.01 0.00 0.00
0.02 0.01 0.01 0.00 0.00 0.00 0.00 0.00 0.00 0.00 0.00 0.00 0.00 0.00 0.00 0.00 0.00 0.00 0.00 0.00 0.00 0.00 0.00 0.00 0.00 0.00 0.00 0.00 0.00 0.01 0.01 0.01 0.02 0.03 0.04 0.05 0.05 0.06 0.07 0.07 0.06 0.04 0.02
0.05 0.03 0.02 0.01 0.00 0.00 0.00 0.00 0.00 0.00 0.00 0.00 0.00 0.00 0.00 0.00 0.00 0.00 0.00 0.00 0.00 0.00 0.00 0.00 0.00 0.00 0.00 0.00 0.00 0.00 0.00 0.00 0.01 0.01 0.02 0.03 0.04 0.05 0.06 0.08 0.10 0.08 0.05
0.07 0.06 0.05 0.04 0.03 0.03 0.03 0.02 0.02 0.01 0.01 0.01 0.02 0.01 0.00 0.00 0.00 0.00 0.00 0.00 0.00 0.00 0.00 0.00 0.00 0.00 0.00 0.00 0.00 0.00 0.00 0.00 0.00 0.00 0.01 0.02 0.03 0.04 0.06 0.07 0.09 0.10 0.09
0.09 0.07 0.06 0.05 0.04 0.04 0.04 0.04 0.04 0.04 0.03 0.02 0.02 0.02 0.01 0.00 0.00 0.00 0.00 0.00 0.00 0.00 0.00 0.00 0.00 0.00 0.00 0.00 0.00 0.00 0.00 0.00 0.00 0.00 0.01 0.01 0.01 0.03 0.05 0.07 0.08 0.09 0.10
0.12 0.10 0.08 0.06 0.06 0.05 0.05 0.05 0.05 0.04 0.03 0.02 0.01 0.01 0.01 0.01 0.01 0.00 0.00 0.00 0.00 0.00 0.00 0.00 0.00 0.00 0.00 0.00 0.00 0.00 0.00 0.00 0.01 0.01 0.01 0.01 0.01 0.02 0.03 0.06 0.08 0.08 0.08
0.11 0.10 0.09 0.08 0.07 0.06 0.06 0.06 0.05 0.03 0.02 0.01 0.01 0.01 0.00 0.00 0.01 0.01 0.00 0.00 0.00 0.00 0.00 0.00 0.00 0.00 0.00 0.00 0.00 0.00 0.00 0.00 0.01 0.01 0.02 0.02 0.02 0.02 0.02 0.04 0.06 0.08 0.09
0.11 0.10 0.08 0.06 0.05 0.04 0.04 0.03 0.02 0.02 0.01 0.01 0.00 0.00 0.00 0.00 0.00 0.00 0.01 0.00 0.00 0.00 0.00 0.00 0.00 0.00 0.00 0.00 0.00 0.00 0.00 0.00 0.01 0.01 0.03 0.03 0.02 0.01 0.01 0.02 0.04 0.06 0.08
0.09 0.08 0.07 0.05 0.04 0.04 0.03 0.02 0.01 0.01 0.00 0.00 0.00 0.00 0.00 0.00 0.00 0.00 0.01 0.01 0.00 0.00 0.00 0.00 0.00 0.00 0.00 0.00 0.00 0.01 0.00 0.00 0.00 0.01 0.02 0.01 0.01 0.01 0.01 0.01 0.02 0.04 0.07
0.07 0.06 0.05 0.04 0.03 0.02 0.01 0.01 0.00 0.00 0.00 0.00 0.00 0.00 0.00 0.00 0.00 0.00 0.01 0.01 0.01 0.00 0.00 0.00 0.00 0.00 0.00 0.00 0.01 0.01 0.00 0.00 0.00 0.00 0.01 0.00 0.00 0.01 0.01 0.01 0.02 0.03 0.05
0.05 0.04 0.03 0.02 0.01 0.01 0.01 0.00 0.00 0.00 0.00 0.00 0.00 0.00 0.00 0.00 0.00 0.00 0.00 0.01 0.01 0.01 0.00 0.00 0.00 0.00 0.00 0.00 0.01 0.00 0.00 0.00 0.00 0.00 0.01 0.00 0.00 0.01 0.01 0.01 0.01 0.02 0.03
0.03 0.02 0.01 0.01 0.00 0.00 0.00 0.00 0.00 0.00 0.00 0.00 0.00 0.00 0.00 0.00 0.00 0.00 0.00 0.00 0.01 0.01 0.01 0.00 0.00 0.00 0.00 0.00 0.01 0.00 0.00 0.00 0.00 0.00 0.00 0.01 0.01 0.01 0.01 0.01 0.01 0.01 0.02
0.01 0.01 0.01 0.00 0.00 0.00 0.00 0.00 0.00 0.00 0.00 0.00 0.00 0.00 0.00 0.00 0.00 0.00 0.00 0.00 0.00 0.00 0.01 0.00 0.00 0.00 0.00 0.00 0.00 0.00 0.00 0.00 0.00 0.00 0.00 0.00 0.00 0.00 0.01 0.01 0.02 0.03 0.02
0.01 0.01 0.01 0.00 0.00 0.00 0.00 0.00 0.00 0.00 0.00 0.00 0.00 0.00 0.00 0.00 0.00 0.00 0.00 0.00 0.00 0.00 0.00 0.00 0.00 0.00 0.00 0.00 0.00 0.00 0.00 0.00 0.00 0.00 0.00 0.00 0.00 0.00 0.00 0.01 0.02 0.02 0.02
0.01 0.01 0.01 0.00 0.00 0.00 0.00 0.00 0.00 0.00 0.00 0.00 0.00 0.00 0.00 0.00 0.00 0.00 0.00 0.00 0.00 0.00 0.00 0.00 0.00 0.00 0.00 0.00 0.00 0.00 0.00 0.00 0.00 0.00 0.00 0.00 0.00 0.00 0.00 0.01 0.01 0.01 0.01
0.00 0.00 0.00 0.00 0.00 0.00 0.00 0.00 0.00 0.00 0.00 0.00 0.00 0.00 0.00 0.00 0.00 0.00 0.00 0.00 0.00 0.00 0.00 0.00 0.00 0.00 0.00 0.00 0.00 0.00 0.00 0.00 0.00 0.00 0.00 0.00 0.00 0.00 0.00 0.00 0.00 0.00 0.00
0.00 0.00 0.00 0.00 0.00 0.00 0.00 0.00 0.00 0.00 0.00 0.00 0.00 0.00 0.00 0.00 0.00 0.00 0.00 0.00 0.00 0.00 0.00 0.00 0.00 0.00 0.00 0.00 0.00 0.00 0.00 0.00 0.00 0.00 0.00 0.00 0.00 0.00 0.00 0.00 0.00 0.00 0.00
0.00 0.00 0.00 0.00 0.00 0.00 0.00 0.00 0.00 0.00 0.00 0.00 0.00 0.00 0.00 0.00 0.00 0.00 0.00 0.00 0.00 0.00 0.00 0.00 0.00 0.00 0.00 0.00 0.00 0.00 0.00 0.00 0.00 0.00 0.00 0.00 0.00 0.00 0.00 0.00 0.00 0.00 0.00
0.00 0.00 0.00 0.00 0.00 0.00 0.00 0.00 0.00 0.00 0.00 0.00 0.00 0.00 0.00 0.00 0.00 0.00 0.00 0.00 0.00 0.00 0.00 0.00 0.00 0.00 0.00 0.00 0.00 0.00 0.00 0.00 0.00 0.00 0.00 0.00 0.00 0.00 0.00 0.00 0.00 0.00 0.00
0.00 0.00 0.00 0.00 0.00 0.00 0.00 0.00 0.00 0.00 0.00 0.00 0.00 0.00 0.00 0.00 0.00 0.00 0.00 0.00 0.00 0.00 0.00 0.00 0.00 0.00 0.00 0.00 0.00 0.00 0.00 0.00 0.00 0.00 0.00 0.00 0.00 0.00 0.00 0.00 0.00 0.00 0.00
0.00 0.00 0.00 0.00 0.00 0.00 0.00 0.00 0.00 0.00 0.00 0.00 0.00 0.00 0.00 0.00 0.00 0.00 0.00 0.00 0.00 0.00 0.00 0.00 0.00 0.00 0.00 0.00 0.00 0.00 0.00 0.00 0.00 0.00 0.00 0.00 0.00 0.00 0.00 0.00 0.00 0.00 0.00
0.00 0.00 0.00 0.00 0.00 0.00 0.00 0.00 0.00 0.00 0.00 0.00 0.00 0.00 0.00 0.00 0.00 0.00 0.00 0.00 0.00 0.00 0.00 0.00 0.00 0.00 0.00 0.00 0.00 0.00 0.00 0.00 0.00 0.00 0.00 0.00 0.00 0.00 0.00 0.00 0.00 0.00 0.00
MSLP
1018.72 1018.87 1019.02 1019.17 1019.32 1019.46 1019.58 1019.69 1019.77 1019.82 1019.84 1019.85 1019.85 1019.85 1019.85 1019.84 1019.83 1019.80 1019.75 1019.69 1019.61 1019.52 1019.45 1019.40 1019.39 1019.41 1019.46 1019.54 1019.63 1019.72 1019.80 1019.87 1019.94 1020.00 1020.08 1020.16 1020.25 1020.35 1020.43 1020.49 1020.53 1020.52 1020.47
1018.39 1018.52 1018.67 1018.85 1019.04 1019.24 1019.42 1019.57 1019.68 1019.74 1019.77 1019.76 1019.74 1019.72 1019.70 1019.67 1019.64 1019.60 1019.54 1019.45 1019.36 1019.27 1019.19 1019.13 1019.12 1019.16 1019.23 1019.32 1019.43 1019.54 1019.64 1019.73 1019.80 1019.87 1019.94 1020.02 1020.12 1020.22 1020.32 1020.41 1020.47 1020.51 1020.52
1017.96 1018.07 1018.23 1018.44 1018.69 1018.96 1019.21 1019.41 1019.57 1019.65 1019.69 1019.68 1019.64 1019.60 1019.55 1019.51 1019.45 1019.39 1019.31 1019.21 1019.11 1019.01 1018.93 1018.89 1018.90 1018.95 1019.05 1019.18 1019.31 1019.44 1019.55 1019.64 1019.70 1019.76 1019.81 1019.88 1019.95 1020.04 1020.14 1020.24 1020.33 1020.41 1020.48
1017.48 1017.58 1017.76 1018.01 1018.33 1018.66 1018.97 1019.24 1019.44 1019.56 1019.60 1019.59 1019.55 1019.48 1019.41 1019.34 1019.27 1019.19 1019.09 1018.99 1018.88 1018.79 1018.73 1018.72 1018.76 1018.85 1018.98 1019.14 1019.29 1019.44 1019.55 1019.62 1019.67 1019.69 1019.71 1019.73 1019.77 1019.83 1019.91 1020.01 1020.13 1020.24 1020.36
1017.01 1017.12 1017.33 1017.63 1017.99 1018.38 1018.75 1019.07 1019.31 1019.45 1019.51 1019.50 1019.45 1019.37 1019.29 1019.20 1019.11 1019.01 1018.92 1018.82 1018.73 1018.66 1018.63 1018.65 1018.74 1018.87 1019.04 1019.22 1019.40 1019.54 1019.64 1019.68 1019.69 1019.66 1019.62 1019.59 1019.58 1019.61 1019.67 1019.76 1019.88 1020.02 1020.17
1016.61 1016.74 1016.99 1017.33 1017.73 1018.16 1018.57 1018.92 1019.17 1019.34 1019.40 1019.40 1019.35 1019.27 1019.18 1019.09 1018.99 1018.90 1018.81 1018.73 1018.67 1018.64 1018.66 1018.73 1018.86 1019.04 1019.24 1019.44 1019.61 1019.74 1019.80 1019.80 1019.75 1019.66 1019.56 1019.47 1019.41 1019.39 1019.42 1019.50 1019.61 1019.76 1019.94
1016.31 1016.48 1016.75 1017.12 1017.55 1018.01 1018.43 1018.79 1019.06 1019.22 1019.30 1019.31 1019.26 1019.19 1019.11 1019.03 1018.95 1018.87 1018.80 1018.75 1018.73 1018.75 1018.82 1018.94 1019.12 1019.33 1019.55 1019.75 1019.91 1020.00 1020.02 1019.96 1019.84 1019.69 1019.53 1019.38 1019.28 1019.22 1019.22 1019.27 1019.37 1019.51 1019.69
1016.10 1016.31 1016.63 1017.02 1017.46 1017.91 1018.33 1018.69 1018.95 1019.13 1019.21 1019.23 1019.21 1019.16 1019.10 1019.03 1018.98 1018.93 1018.89 1018.88 1018.90 1018.97 1019.08 1019.25 1019.47 1019.70 1019.93 1020.12 1020.25 1020.29 1020.25 1020.13 1019.95 1019.75 1019.53 1019.35 1019.20 1019.11 1019.08 1019.10 1019.17 1019.28 1019.44
1015.97 1016.24 1016.59 1017.00 1017.44 1017.88 1018.28 1018.61 1018.87 1019.05 1019.14 1019.19 1019.19 1019.17 1019.14 1019.11 1019.08 1019.06 1019.05 1019.08 1019.14 1019.25 1019.41 1019.62 1019.85 1020.10 1020.32 1020.49 1020.57 1020.57 1020.48 1020.31 1020.08 1019.83 1019.59 1019.38 1019.22 1019.10 1019.04 1019.02 1019.04 1019.10 1019.20
1015.90 1016.23 1016.61 1017.03 1017.46 1017.88 1018.25 1018.57 1018.81 1018.99 1019.11 1019.18 1019.21 1019.23 1019.23 1019.23 1019.23 1019.23 1019.25 1019.30 1019.40 1019.54 1019.73 1019.96 1020.21 1020.45 1020.66 1020.80 1020.85 1020.81 1020.68 1020.47 1020.22 1019.96 1019.72 1019.50 1019.33 1019.21 1019.11 1019.05 1019.01 1018.98 1018.99
1015.87 1016.26 1016.67 1017.09 1017.51 1017.89 1018.24 1018.53 1018.77 1018.95 1019.09 1019.19 1019.26 1019.31 1019.34 1019.37 1019.38 1019.40 1019.43 1019.49 1019.60 1019.76 1019.96 1020.21 1020.46 1020.71 1020.90 1021.02 1021.05 1020.99 1020.84 1020.63 1020.39 1020.14 1019.92 1019.73 1019.57 1019.44 1019.32 1019.20 1019.07 1018.94 1018.83
1015.89 1016.31 1016.74 1017.15 1017.55 1017.91 1018.22 1018.49 1018.72 1018.91 1019.07 1019.20 1019.30 1019.38 1019.44 1019.47 1019.49 1019.51 1019.54 1019.60 1019.71 1019.87 1020.08 1020.33 1020.59 1020.84 1021.03 1021.14 1021.17 1021.10 1020.97 1020.78 1020.57 1020.37 1020.19 1020.04 1019.91 1019.78 1019.63 1019.45 1019.24 1018.99 1018.75
1015.94 1016.38 1016.81 1017.21 1017.58 1017.90 1018.19 1018.44 1018.66 1018.85 1019.03 1019.19 1019.31 1019.41 1019.48 1019.51 1019.53 1019.53 1019.55 1019.60 1019.70 1019.86 1020.07 1020.33 1020.60 1020.84 1021.04 1021.17 1021.21 1021.18 1021.08 1020.94 1020.80 1020.66 1020.54 1020.44 1020.34 1020.22 1020.05 1019.81 1019.50 1019.14 1018.76
1016.03 1016.48 1016.89 1017.26 1017.58 1017.87 1018.12 1018.35 1018.56 1018.77 1018.96 1019.13 1019.28 1019.39 1019.45 1019.48 1019.48 1019.47 1019.46 1019.49 1019.58 1019.74 1019.95 1020.22 1020.50 1020.77 1020.99 1021.14 1021.23 1021.24 1021.20 1021.13 1021.05 1020.99 1020.94 1020.89 1020.83 1020.72 1020.53 1020.24 1019.86 1019.39 1018.89
1016.17 1016.59 1016.96 1017.29 1017.57 1017.81 1018.02 1018.23 1018.43 1018.64 1018.84 1019.03 1019.19 1019.31 1019.37 1019.39 1019.37 1019.34 1019.32 1019.33 1019.41 1019.56 1019.78 1020.06 1020.36 1020.65 1020.90 1021.10 1021.23 1021.30 1021.33 1021.33 1021.33 1021.34 1021.36 1021.37 1021.34 1021.24 1021.04 1020.72 1020.28 1019.74 1019.16
1016.33 1016.71 1017.03 1017.30 1017.53 1017.72 1017.90 1018.08 1018.28 1018.49 1018.70 1018.90 1019.07 1019.20 1019.27 1019.28 1019.25 1019.21 1019.17 1019.18 1019.25 1019.40 1019.63 1019.91 1020.23 1020.55 1020.84 1021.08 1021.26 1021.39 1021.49 1021.56 1021.63 1021.70 1021.78 1021.83 1021.83 1021.75 1021.55 1021.21 1020.75 1020.18 1019.56
1016.50 1016.83 1017.10 1017.31 1017.48 1017.63 1017.78 1017.94 1018.12 1018.33 1018.56 1018.78 1018.97 1019.11 1019.19 1019.21 1019.18 1019.13 1019.09 1019.10 1019.17 1019.32 1019.55 1019.85 1020.18 1020.52 1020.84 1021.12 1021.34 1021.52 1021.67 1021.80 1021.92 1022.04 1022.16 1022.24 1022.27 1022.20 1022.01 1021.69 1021.23 1020.68 1020.07
1016.66 1016.94 1017.15 1017.32 1017.44 1017.55 1017.67 1017.81 1018.00 1018.22 1018.46 1018.70 1018.91 1019.07 1019.17 1019.21 1019.20 1019.16 1019.13 1019.14 1019.22 1019.37 1019.60 1019.90 1020.24 1020.59 1020.92 1021.22 1021.47 1021.68 1021.86 1022.03 1022.19 1022.34 1022.48 1022.59 1022.63 1022.58 1022.41 1022.12 1021.70 1021.19 1020.64
1016.78 1017.02 1017.20 1017.32 1017.41 1017.49 1017.59 1017.73 1017.92 1018.16 1018.42 1018.68 1018.92 1019.12 1019.25 1019.32 1019.33 1019.31 1019.30 1019.32 1019.40 1019.55 1019.78 1020.06 1020.39 1020.73 1021.06 1021.37 1021.63 1021.86 1022.06 1022.25 1022.42 1022.59 1022.74 1022.85 1022.90 1022.87 1022.73 1022.48 1022.12 1021.69 1021.21
1016.86 1017.08 1017.23 1017.33 1017.41 1017.48 1017.57 1017.72 1017.91 1018.16 1018.45 1018.74 1019.01 1019.24 1019.41 1019.52 1019.57 1019.58 1019.59 1019.62 1019.70 1019.84 1020.05 1020.32 1020.62 1020.94 1021.25 1021.55 1021.81 1022.04 1022.25 1022.44 1022.62 1022.79 1022.94 1023.05 1023.11 1023.09 1022.98 1022.77 1022.48 1022.13 1021.75
1016.88 1017.10 1017.25 1017.36 1017.43 1017.50 1017.60 1017.75 1017.96 1018.23 1018.53 1018.85 1019.15 1019.42 1019.63 1019.77 1019.86 1019.91 1019.94 1019.98 1020.06 1020.19 1020.38 1020.61 1020.88 1021.17 1021.45 1021.73 1021.98 1022.21 1022.41 1022.61 1022.79 1022.95 1023.09 1023.20 1023.26 1023.25 1023.16 1022.99 1022.76 1022.49 1022.21
1016.86 1017.09 1017.26 1017.38 1017.47 1017.55 1017.67 1017.83 1018.05 1018.32 1018.64 1018.98 1019.31 1019.60 1019.85 1020.03 1020.15 1020.23 1020.28 1020.34 1020.42 1020.53 1020.69 1020.89 1021.12 1021.37 1021.63 1021.88 1022.12 1022.34 1022.55 1022.74 1022.93 1023.09 1023.23 1023.33 1023.38 1023.37 1023.30 1023.17 1022.99 1022.78 1022.57
1016.78 1017.05 1017.25 1017.40 1017.51 1017.61 1017.74 1017.90 1018.13 1018.41 1018.73 1019.08 1019.42 1019.74 1020.01 1020.22 1020.37 1020.48 1020.56 1020.63 1020.70 1020.81 1020.94 1021.11 1021.31 1021.53 1021.76 1021.99 1022.22 1022.44 1022.66 1022.86 1023.05 1023.21 1023.35 1023.45 1023.51 1023.50 1023.44 1023.33 1023.18 1023.02 1022.86
1016.65 1016.96 1017.20 1017.37 1017.51 1017.64 1017.77 1017.95 1018.17 1018.45 1018.76 1019.11 1019.45 1019.78 1020.07 1020.30 1020.49 1020.62 1020.72 1020.80 1020.89 1020.98 1021.10 1021.25 1021.42 1021.62 1021.83 1022.06 1022.29 1022.52 1022.74 1022.96 1023.16 1023.34 1023.49 1023.59 1023.65 1023.65 1023.60 1023.50 1023.37 1023.23 1023.10
1016.45 1016.79 1017.07 1017.28 1017.44 1017.59 1017.74 1017.92 1018.14 1018.40 1018.71 1019.05 1019.38 1019.71 1020.01 1020.26 1020.47 1020.63 1020.76 1020.86 1020.95 1021.05 1021.17 1021.31 1021.47 1021.66 1021.87 1022.09 1022.33 1022.57 1022.81 1023.05 1023.28 1023.47 1023.64 1023.75 1023.81 1023.82 1023.78 1023.69 1023.57 1023.44 1023.32
1016.17 1016.53 1016.83 1017.07 1017.27 1017.44 1017.61 1017.79 1018.01 1018.27 1018.57 1018.89 1019.22 1019.55 1019.85 1020.12 1020.34 1020.53 1020.68 1020.81 1020.93 1021.04 1021.17 1021.31 1021.47 1021.66 1021.87 1022.10 1022.35 1022.61 1022.88 1023.14 1023.38 1023.60 1023.78 1023.92 1023.99 1024.01 1023.98 1023.90 1023.79 1023.67 1023.56
Thickness
5684 5683 5683 5683 5683 5683 5683 5682 5682 5681 5681 5681 5681 5680 5680 5679 5678 5677 5677 5676 5674 5673 5671 5668 5666 5663 5660 5656 5653 5649 5645 5641 5638 5634 5630 5626 5622 5618 5614 5611 5608 5605 5602
5680 5679 5679 5679 5679 5679 5679 5678 5678 5677 5677 5677 5676 5676 5675 5675 5674 5674 5673 5672 5670 5669 5667 5665 5662 5660 5656 5653 5649 5645 5641 5638 5634 5630 5626 5622 5618 5613 5609 5605 5602 5599 5596
5677 5676 5675 5675 5675 5675 5674 5673 5673 5672 5672 5672 5672 5671 5671 5670 5670 5669 5669 5668 5667 5665 5663 5661 5658 5655 5652 5648 5644 5640 5637 5633 5630 5626 5622 5618 5614 5609 5605 5601 5597 5593 5590
5673 5672 5671 5671 5671 5670 5669 5669 5668 5667 5667 5667 5666 5666 5666 5666 5666 5665 5665 5664 5662 5661 5659 5656 5653 5650 5646 5642 5639 5635 5631 5628 5624 5621 5618 5614 5610 5606 5601 5597 5592 5588 5585
5670 5669 5668 5668 5667 5666 5665 5664 5663 5662 5662 5662 5662 5662 5662 5662 5661 5661 5660 5659 5657 5655 5653 5650 5647 5643 5639 5635 5632 5628 5625 5621 5618 5615 5612 5609 5606 5602 5597 5593 5588 5584 5581
5666 5665 5664 5664 5663 5661 5660 5659 5657 5657 5656 5656 5656 5656 5657 5657 5656 5656 5655 5653 5651 5649 5646 5643 5640 5636 5632 5628 5624 5620 5617 5614 5611 5609 5606 5603 5600 5597 5593 5589 5585 5581 5577
5661 5660 5660 5658 5658 5656 5655 5653 5652 5651 5649 5649 5648 5648 5650 5650 5649 5648 5647 5645 5643 5640 5638 5635 5631 5627 5623 5619 5615 5612 5609 5606 5603 5601 5599 5597 5595 5592 5589 5586 5582 5578 5574
5656 5655 5654 5653 5652 5650 5648 5647 5645 5644 5643 5641 5640 5639 5638 5639 5639 5638 5636 5634 5632 5629 5627 5624 5621 5617 5613 5609 5606 5603 5600 5598 5596 5594 5592 5590 5588 5586 5584 5581 5579 5575 5571
5650 5649 5648 5647 5646 5645 5643 5641 5639 5637 5635 5633 5632 5630 5627 5627 5628 5629 5626 5623 5620 5617 5615 5612 5609 5606 5602 5599 5596 5594 5591 5589 5587 5586 5585 5583 5581 5580 5578 5576 5574 5571 5568
5643 5643 5641 5640 5639 5637 5635 5634 5632 5630 5628 5625 5624 5622 5621 5619 5617 5618 5616 5612 5609 5606 5603 5601 5598 5594 5591 5589 5586 5584 5582 5579 5578 5577 5577 5576 5574 5573 5572 5570 5569 5567 5564
5636 5635 5633 5632 5630 5628 5626 5625 5623 5621 5619 5618 5616 5614 5612 5610 5608 5607 5607 5602 5598 5594 5591 5589 5586 5583 5581 5578 5576 5574 5572 5570 5568 5567 5567 5567 5566 5565 5564 5563 5562 5561 5560
5626 5625 5624 5623 5621 5619 5617 5615 5613 5611 5610 5609 5607 5605 5604 5601 5600 5598 5598 5595 5590 5583 5579 5577 5574 5572 5569 5567 5564 5562 5561 5559 5558 5557 5557 5557 5557 5556 5556 5555 5555 5555 5555
5617 5616 5614 5613 5611 5609 5607 5605 5603 5601 5600 5598 5597 5595 5594 5592 5590 5589 5587 5586 5583 5575 5570 5566 5563 5560 5558 5556 5553 5551 5549 5548 5547 5546 5546 5546 5546 5547 5547 5547 5548 5548 5548
5610 5607 5605 5602 5601 5599 5597 5595 5593 5591 5590 5588 5586 5584 5582 5580 5578 5577 5576 5575 5574 5569 5562 5557 5552 5549 5546 5544 5542 5540 5538 5537 5535 5534 5534 5534 5535 5536 5538 5539 5539 5540 5541
5600 5597 5595 5592 5590 5588 5587 5585 5582 5580 5578 5576 5574 5573 5571 5569 5567 5565 5564 5562 5562 5562 5557 5548 5542 5538 5535 5533 5530 5528 5526 5525 5524 5523 5522 5523 5525 5526 5527 5529 5530 5531 5532
5590 5587 5584 5581 5579 5577 5575 5573 5571 5569 5567 5565 5563 5561 5559 5556 5554 5553 5551 5550 5549 5549 5548 5539 5532 5528 5524 5522 5519 5517 5515 5513 5512 5511 5512 5512 5513 5514 5516 5518 5520 5521 5522
5579 5576 5573 5570 5568 5566 5564 5562 5560 5558 5555 5553 5551 5549 5546 5544 5542 5540 5539 5537 5535 5535 5535 5527 5521 5517 5513 5510 5507 5505 5503 5502 5501 5501 5501 5501 5502 5502 5505 5507 5508 5510 5512
5566 5564 5561 5559 5556 5554 5553 5551 5548 5546 5544 5541 5539 5536 5534 5532 5529 5527 5525 5524 5522 5521 5521 5517 5510 5506 5502 5499 5496 5494 5492 5491 5490 5490 5490 5491 5491 5491 5493 5495 5496 5498 5500
5553 5551 5549 5547 5545 5543 5541 5539 5536 5534 5532 5529 5527 5524 5521 5519 5517 5515 5513 5511 5509 5508 5507 5506 5500 5495 5491 5488 5485 5482 5480 5479 5479 5479 5479 5480 5480 5481 5482 5483 5484 5486 5487
5541 5539 5537 5535 5533 5531 5529 5526 5524 5522 5520 5517 5515 5512 5510 5508 5505 5503 5501 5498 5497 5495 5494 5492 5489 5484 5480 5477 5475 5472 5470 5468 5467 5468 5468 5469 5470 5471 5472 5473 5474 5474 5475
5530 5528 5525 5523 5521 5519 5517 5515 5513 5511 5508 5505 5503 5501 5498 5496 5494 5492 5489 5486 5485 5483 5481 5479 5477 5473 5470 5468 5465 5462 5460 5458 5457 5457 5458 5459 5460 5461 5462 5462 5463 5463 5464
5518 5516 5514 5512 5510 5510 5508 5506 5503 5500 5497 5494 5492 5489 5487 5484 5483 5481 5479 5476 5474 5471 5469 5467 5465 5464 5460 5458 5455 5454 5451 5450 5449 5447 5448 5449 5450 5450 5451 5452 5453 5453 5454
5506 5504 5503 5502 5500 5499 5498 5496 5494 5490 5487 5484 5481 5478 5476 5473 5471 5468 5466 5464 5462 5461 5459 5457 5455 5453 5451 5449 5447 5444 5442 5441 5440 5439 5440 5440 5440 5440 5441 5442 5443 5444 5444
5496 5494 5493 5491 5489 5489 5488 5487 5484 5480 5477 5474 5471 5468 5465 5462 5459 5456 5453 5451 5449 5448 5447 5446 5445 5443 5442 5440 5439 5437 5435 5432 5431 5430 5431 5430 5430 5431 5431 5432 5433 5433 5433
5485 5484 5483 5482 5480 5479 5479 5477 5475 5469 5466 5463 5461 5458 5455 5452 5450 5448 5443 5441 5438 5437 5437 5436 5435 5434 5433 5432 5430 5428 5425 5424 5423 5423 5421 5422 5421 5421 5421 5421 5422 5422 5422
5476 5475 5473 5472 5471 5469 5469 5468 5465 5459 5456 5452 5450 5448 5446 5444 5442 5440 5435 5432 5430 5428 5427 5426 5425 5424 5423 5423 5422 5420 5418 5415 5414 5414 5413 5412 5411 5411 5410 5411 5411 5411 5411